User: anonymous   Login
Location: Spradlin Observatory
(33.4706°N, 86.3221°W)
Time: 07:04:55
(UTC-05:00)
Language:

COSMOS 2406 - Orbit

View from above orbital plane
View from above orbital plane
View from above satellite
View from above satellite

Ground track
Ground track

The orbit data is extracted from the following two-line orbital elements,

1 28352U 04021A   15116.17996527  .00000041  00000-0  48672-4 0  9993
2 28352 071.0007 319.2876 0015282 208.3822 295.7442 14.11392898560365
Epoch (UTC): 26 April 2015 04:19:08
Eccentricity: 0.0015282
inclination: 71.0007°
perigee height: 843 km
apogee height: 865 km
right ascension of ascending node: 319.2876°
argument of perigee: 208.3822°
revolutions per day: 14.11392898
mean anomaly at epoch: 295.7442°
orbit number at epoch: 56036

The dashed part of the orbit path shows where the satellite is in the earth's shadow,  

DLR